Погода в Туркестане

Погода в Туркестане : погода сейчас, прогноз погоды и архив. Всё, что Вы хотите узнать о погоде в Туркестане!

Хотите узнать прогноз погоды в Туркестане? Тогда Вам сюда: Погода в Туркестане

Поиск расширенной информации на нашем сайте:

Другие новости

Новости СМИ2

Главная страница сайта

Новости сайта

03.07.2017

Напоминаем, что на нашем специализированном сайте Метеоцентр.Азия вы можете получить высокодетализированные автоматические прогнозы погоды по пунктам России, СНГ и мира в авиационном формате (включающие направление и скорость ветра, видимость, явления погоды, количество и форму облачности, нижнюю и верхнюю границу облачности).


Погода в Туркестане - сегодня

Время (UTC), дата Ветер
(°,м/с) 
Видим.   Явления Облачность Т
(°С)
Тd
(°С)
f(%) Тe
(°С)
Pmin
(гПа)
dP
(гПа)
Po
(мм)
O2
(г/м3)
Тmin Tmax R s Состояние
почвы
21 14.06.18 360 (С) н/о    3/0 верхняя 
[Ci sp]
+20.4 +8.2 45 +20  1007.1  -0.7  738  275           
00 15.06.18 040 (СВ) 10 км    9/5 600 м кучево-дожд., средняя, верхняя 
[Cb cap|Ac As|Ci sp]
+21.9 +9.1 44 +22  1007.2  0.2  738  274           
06 15.06.18 140 (ЮВ) 20000 м    8/5 600 м кучево-дожд., средняя 
[Cb cap|Ac As]
+27.3 +7.2 28 +27  1009.2  0.9  740  270  +19.4         
09 15.06.18 060 (СВ) 20000 м  {ливн. осадки}  8/4 600 м кучево-дожд., средняя, верхняя 
[Cb cap|Ac As|Ci sp]
+26.1 +10.8 38 +29  1010.3  0.9  740  270           
18 15.06.18 090 (В) н/о    ясно 
+20.6 +11.9 57 +25  1013  1.5  742  276    +32  0.0     
21 15.06.18 090 (В) н/о    ясно 
+18.7 +9.5 55 +21  1012  -0.2  742  278           
00 16.06.18 020 (С) 20000 м    ясно 
+17.8 +6.3 47 +18  1012.3  -0.7  741  279           
06 16.06.18 020 (С) 20000 м    ясно 
+30.9 -0.5 13 +31  1009.9  -1.6  740  268  +14.9         
09 16.06.18 040 (СВ) 20000 м    ясно 
+31.7 -1.5 12 +32  1008.4  -1.5  739  267           
12 16.06.18 030 (СВ) 20000 м    ясно 
+32.5 +1.1 14 +33  1007.2  -1.1  738  266           
15 16.06.18 070 (В) 20000 м    ясно 
+29.1 +1.1 16 +29  1006.5  -0.9  738  268    +33.1       
18 16.06.18 050 (СВ) н/о    ясно 
+24.5 +1.7 22 +25  1006.2  -0.6  737  272    +33.1       
21 16.06.18 040 (СВ) н/о    ясно 
+22.3 +2.7 28 +22  1005  -1.4  736  274           
00 17.06.18 020 (С) 20000 м    ясно 
+19.7 +4.5 37 +21  1004.1  -1.1  735  276           
06 17.06.18 180 (Ю) 20000 м    1/1 1000 м 
[Cu hum]
+32.3 +4.9 18 +32  1001.9  -1.2  734  264  +19.7         
09 17.06.18 200 (Ю) 20000 м    3/1 1000 м верхняя 
[Cu hum|Ci fib]
+34.5 +2.1 13 +35  1000.3  -1.3  733  262           
12 17.06.18 250 (З) 20000 м    3/3 1000 м 
[Cu med, cong]
+35.4 +2.8 13 +35  999.3  -1  733  261           
15 17.06.18 250 (З) 20000 м    3/0 средняя 
[Ac lent]
+31.7 +0.5 14 +32  999.7  0.1  733  264    +35.7       
18 17.06.18 тихо ()   н/о    ясно 
+23.9 +3.1 26 +24  1000.6  0.3  733  271    +35.7       
21 17.06.18 080 (В) н/о    ясно 
+20.6 +3.6 33 +21  1000.4  -0.4  733  274           
00 18.06.18 100 (В) 20000 м    3/0 средняя 
[Ac lent]
+20.2 +5.1 37 +20  1000.6  0.1  733  274           
06 18.06.18 160 (Ю) 20000 м    3/0 верхняя 
[Ci sp]
+34.7 +2.7 13 +35  999  -1.1  732  261  +19.4         
09 18.06.18 240 (ЮЗ) 20000 м    8/3 1000 м средняя, верхняя 
[Cu hum|Ac lent|Ci sp]
+38.7 -6.2 6 +39  997.2  -1.5  731  259           
18 18.06.18 280 (З) н/о    8/3 600 м кучево-дожд., средняя, верхняя 
[Cb cap|Ac As|Ci sp]
+27.6 -2.1 14 +28  1000.6  0.9  733  268    +39.1       
21 18.06.18 180 (Ю) н/о    4/0 средняя, верхняя 
[Ac trans|Ci sp]
+22.8 +0.2 22 +23  1001  733  273           
Время (UTC), дата Ветер
(°,м/с) 
Видим.   Явления Облачность Т
(°С)
Тd
(°С)
f(%) Тe
(°С)
Pmin
(гПа)
dP
(гПа)
Po
(мм)
O2
(г/м3)
Тmin Tmax R s Состояние
почвы

Для получения пояснительной информации подведите курсор к названию столбца.

ПОГОДА в Туркестане - архив

Всё, что Вы хотите узнать о погоде в Туркестане - удобно и подробно!

Выберите нужную дату (начиная с 1 января 2015* года) и нажмите кнопку "Найти".
Будут отображены архивные сводки погоды по пункту Туркестан, начиная с указанной даты.


Отображать данные в формате CSV (для использования в таблицах Excel)


Внимание! Наш архив погоды предназначен исключительно для личного некоммерческого использования в познавательных целях. Если Вам необходимы официальные справки о состоянии погоды (для производственных, юридических, коммерческих и т.п. целей), обращайтесь в органы Росгидромета.

*Примечание: данная дата относится к архиву по метеостанциям СССР (Россия, СНГ, Балтия).
Архив по метеостанциям Зарубежной Европы и Азии (кроме Китая) хранится 10 дней, по другим регионам земного шара (Китай, Африка, Америка, Австралия, Океания) - 1 день.

Туркестан - район местоположения метеостанции


Название, широта, долгота, высота метеостанции:
Туркестан 43.3°ш. 68.2°д. 207 м над ур. моря [Казахстан]

Дополнительная информация

В oтличие oт бoльшинства пoгoдных сайтoв мы публикуем пoдрoбную метеoинфoрмацию в детальнoм прoфессиoнальнoм фoрмате.

Характеристики температуры и влажнoсти вoздуха измеряются на высoте 2 м в тени вдали oт зданий и деревьев.
Скoрoсть ветра измеряется на высoте 10 м (на урoвне рoста челoвека скoрoсть ветра ниже в 1.5-2 раза). Если метеoстанция нахoдится в гoрoде или в лесу, тo скoрoсть ветра занижена на 2-4 м/с пo сравнению с oткрытым местoм. Скoрoсть ветра над акватoриями крупных рек и oзёр, а также на вершинах хoлмoв на 2-5 м/с выше, чем в oбычных услoвиях.
Атмoсфернoе давление в разных тoчках местнoсти мoжет значительнo oтличаться oт давления на метеoстанции, в зависимoсти oт услoвий рельефа (при пoдъёме на 10 м давление пoнижается примернo на 1 мм рт.ст.).